Location: Tamazert
(32.6352°N, 5.2072°W)
Time: 04:23:50
(UTC+00:00)

Vanguard 1 Rocket - Pass Details

Date: 08 October 2022
Orbit: 650 x 4225 km, 34.3° (Epoch: 05 December)

Event Time Altitude Azimuth Distance (km) Brightness Sun altitude
Rises 22:22:24 0° 281° (W) 7,670 12.6 -53.8°
Reaches altitude 10° 22:28:19 10° 281° (WNW) 6,163 11.9 -54.8°
Enters shadow 22:39:23 42° 281° (W) 3,116 10.0 -56.4°
Maximum altitude 22:45:23 87° 196° (SSW) 1,896 - -57.2°
Drops below altitude 10° 22:53:38 10° 107° (ESE) 3,210 - -58.3°
Sets 22:55:46 0° 107° (ESE) 3,908 - -58.6°
